Theta_e
316 315 316 316 315 315 315 314 313 313 313 312 312 313 312 312 312 312 313 313 313 313 313 313 313 314 314 311 310 318 328 322 315 317 313 308 305 304 300 304 306 304 306 308 310 310 310
315 315 315 315 314 314 313 313 313 313 313 312 311 312 311 312 312 312 312 312 313 313 313 313 313 314 311 303 320 318 317 317 319 313 313 311 308 309 304 303 303 305 305 306 308 308 308
315 315 315 314 314 314 314 313 313 312 311 311 312 311 311 311 311 312 312 312 312 313 314 314 314 314 308 307 314 320 317 315 316 313 310 312 311 307 307 303 306 305 301 303 304 306 305
314 314 314 314 314 314 312 312 311 311 311 311 312 311 311 311 312 312 312 313 313 314 314 314 315 314 306 316 316 315 318 315 316 315 313 313 312 308 305 307 304 301 301 296 302 304 305
313 313 314 314 314 314 313 312 311 311 311 311 312 312 311 311 311 312 313 313 314 317 315 315 312 312 307 315 308 312 314 311 312 313 313 312 309 304 304 300 297 298 293 296 298 304 303
313 313 313 314 314 313 313 312 311 310 311 310 311 311 311 312 312 312 313 312 316 314 314 315 314 309 312 308 311 310 314 313 309 308 306 306 304 300 300 297 290 294 295 297 296 302 303
313 313 313 313 314 313 312 311 311 310 310 310 310 311 312 312 312 312 312 317 313 312 316 309 311 308 310 313 314 311 312 310 308 305 299 304 298 296 299 300 300 299 297 296 299 303 301
312 312 313 313 313 313 312 311 311 310 310 310 310 310 311 312 313 313 311 313 311 312 304 311 312 310 311 312 305 308 312 304 303 298 302 299 295 301 302 301 298 298 296 296 299 302 301
311 312 313 313 313 312 312 311 310 310 310 310 310 310 311 312 312 311 315 313 317 316 305 307 311 307 308 309 304 306 309 306 301 299 299 297 299 303 301 298 297 297 295 295 295 299 301
312 311 312 313 312 312 311 311 310 310 310 310 309 310 310 311 309 317 314 318 317 318 299 304 304 306 307 308 303 310 311 306 303 298 299 299 303 300 299 297 298 293 299 298 296 294 290
310 311 312 312 312 312 311 311 310 310 310 309 309 309 310 309 314 313 315 317 317 315 291 304 304 312 308 304 305 306 311 307 299 299 300 297 299 298 297 297 299 295 300 297 297 294 294
310 310 311 312 312 312 311 310 310 310 309 309 308 308 309 314 316 319 319 318 314 300 291 300 304 301 301 303 303 306 305 308 306 300 301 299 304 301 300 301 300 301 297 297 296 293 286
310 310 310 311 312 311 310 310 310 309 308 308 308 307 307 315 312 319 319 313 299 293 304 299 298 301 300 299 301 303 301 300 297 293 294 298 299 303 303 297 300 298 294 286 285 285 284
310 310 310 310 311 311 310 309 309 308 308 307 306 305 309 315 319 320 316 304 292 298 300 304 301 300 297 300 300 301 300 297 301 299 294 291 289 299 301 298 296 296 294 287 280 282 285
309 309 309 310 310 311 310 309 308 308 307 305 304 318 315 320 321 318 307 296 296 300 302 299 299 295 296 300 300 299 298 297 300 301 294 291 291 301 300 301 300 295 290 297 290 292 287
308 309 309 309 310 311 310 309 309 308 306 305 305 315 316 323 321 314 302 296 300 304 303 301 294 296 293 296 296 297 297 300 299 301 302 297 290 297 298 301 300 296 298 288 290 281 280
309 309 309 309 309 310 310 309 308 308 306 304 308 310 318 320 318 306 297 300 303 305 302 296 295 294 295 294 295 295 296 299 301 300 301 299 295 293 296 293 293 293 292 294 294 292 283
309 309 308 308 309 310 310 309 308 307 304 304 307 304 318 315 301 305 301 302 300 300 302 298 298 296 295 296 295 295 295 297 301 301 295 298 294 289 290 297 299 298 294 294 285 286 290
309 308 308 308 308 309 310 308 307 306 304 300 300 306 317 313 298 299 301 300 301 299 298 297 297 299 299 295 292 295 296 300 301 299 297 298 292 285 287 294 296 290 292 292 291 292 284
309 308 308 307 307 309 309 308 307 306 305 303 303 299 307 308 306 300 298 297 297 302 299 298 297 299 297 295 297 294 295 298 300 300 301 298 292 288 284 287 292 288 290 292 289 287 288
309 308 307 306 305 308 310 308 307 306 305 305 306 302 304 297 299 300 300 299 296 295 299 300 296 296 294 291 292 292 295 296 299 302 299 297 289 291 291 292 292 291 291 291 291 292 288
309 308 307 305 305 306 309 307 307 305 304 306 301 298 301 299 302 300 298 297 296 296 296 293 292 294 295 291 293 291 294 294 293 297 296 299 290 292 289 292 292 290 292 293 292 292 292
309 308 307 304 304 305 308 307 306 305 304 304 305 304 300 298 299 296 297 297 296 296 296 296 295 293 293 294 297 298 298 298 297 295 294 294 291 289 285 291 290 286 292 293 294 295 293
309 308 306 304 303 304 307 308 306 305 303 299 303 300 296 294 296 294 296 297 295 295 292 295 296 294 297 301 300 299 298 297 297 296 298 293 291 291 285 288 279 291 297 297 292 292 297
309 308 306 304 303 304 305 307 306 304 304 300 301 301 296 292 295 294 295 295 295 296 295 296 297 299 301 297 293 293 294 295 295 297 297 297 293 288 284 284 288 291 295 295 294 293 299
310 309 307 304 303 303 304 306 307 304 303 301 299 303 296 293 293 295 293 295 292 292 293 296 300 302 300 296 293 287 286 290 290 292 299 297 296 289 287 282 280 291 299 301 298 289 300
309 309 307 305 304 304 304 306 307 305 303 302 299 303 296 292 296 295 290 291 294 294 292 297 298 297 301 293 291 289 288 294 288 288 289 290 289 285 286 284 288 297 300 302 287 290 300
309 309 307 305 304 304 304 306 306 305 303 301 299 301 298 294 295 296 297 295 295 296 292 297 296 297 295 291 292 292 289 291 291 293 292 290 289 288 289 285 282 300 298 291 296 301 301
309 308 307 305 304 304 304 305 305 306 303 302 296 303 304 295 294 299 298 299 300 300 297 298 296 297 296 293 295 294 290 292 291 286 296 290 293 288 292 292 301 301 299 302 302 299 299
Wind_Speed
18 19 19 19 19 19 18 18 18 19 18 20 20 19 18 18 17 16 15 15 15 15 14 14 12 12 11 10 10 12 13 11 10 12 15 9 10 13 17 18 21 24 25 24 24 25 23
18 18 19 20 20 19 19 19 19 18 18 19 20 19 18 18 18 17 16 15 13 14 14 13 12 10 8 13 16 15 11 11 14 10 11 9 9 7 13 17 19 20 21 25 22 24 21
19 19 19 19 18 19 21 21 21 20 18 18 18 19 20 17 18 17 16 15 14 13 14 13 10 9 11 17 5 15 10 10 10 6 9 10 7 9 9 12 18 18 21 19 22 19 21
19 19 19 19 19 20 23 23 22 22 20 18 17 18 19 19 17 17 16 14 15 15 14 11 8 10 10 9 10 10 11 11 9 7 9 11 8 13 14 15 18 17 17 19 21 23 23
19 19 19 18 19 20 21 22 22 22 22 21 18 17 18 18 18 16 16 16 17 9 10 9 8 10 13 3 9 12 11 12 12 9 9 8 10 13 14 15 15 15 17 21 24 24 21
19 20 20 20 19 20 21 21 21 22 23 22 20 17 17 17 17 17 16 15 6 5 7 10 12 10 10 12 10 14 14 13 10 8 12 11 11 13 13 13 15 18 19 21 22 19 20
19 20 20 22 21 21 21 22 22 23 23 23 21 18 17 17 16 13 14 6 7 8 12 15 6 12 10 3 1 7 9 10 10 12 14 14 14 14 17 17 21 21 21 25 21 20 17
19 20 20 22 24 22 21 21 22 24 24 24 24 21 17 16 16 11 7 9 8 8 12 16 22 16 13 2 10 12 13 13 13 14 15 16 17 16 17 18 20 21 19 20 20 21 19
18 19 20 21 21 21 23 22 22 23 24 23 23 22 20 14 12 6 12 6 9 11 9 16 15 12 11 12 13 13 15 14 15 17 17 17 19 17 18 14 18 18 18 19 22 21 21
17 18 20 20 20 21 23 24 24 24 24 24 24 23 21 19 4 10 7 6 10 7 7 11 9 9 7 10 15 16 12 15 18 19 19 17 18 18 18 17 13 20 20 21 20 18 16
17 18 18 19 20 21 22 24 25 24 23 24 24 24 22 12 12 10 9 8 9 5 7 8 11 7 6 11 3 11 10 14 16 18 19 19 19 18 19 16 16 21 19 15 20 17 16
17 18 18 19 20 21 22 23 24 25 25 24 23 22 22 8 8 14 8 7 5 7 6 7 6 7 10 13 15 13 10 13 12 18 20 23 23 24 26 20 16 17 14 14 17 14 15
16 17 17 19 20 21 23 24 24 25 26 27 25 22 12 10 11 9 8 7 7 7 1 1 0 5 9 13 15 13 13 17 17 20 19 22 20 21 23 22 20 18 15 13 14 13 16
16 16 16 17 20 22 23 25 25 26 27 29 30 22 8 9 13 8 8 9 8 11 11 13 8 13 17 18 17 18 15 17 19 19 15 15 17 17 13 18 18 17 18 14 18 13 15
15 15 16 18 17 22 24 25 26 27 29 29 31 4 5 11 8 5 8 10 14 11 13 11 15 18 16 14 12 9 15 16 19 14 16 16 20 7 9 15 6 10 16 19 15 17 15
15 16 16 15 16 19 21 25 27 29 31 29 9 9 7 9 4 5 9 15 21 18 6 10 14 12 16 17 19 19 19 15 22 8 11 17 21 14 13 4 4 8 9 9 6 3 14
12 15 15 15 15 17 20 23 25 27 32 35 5 6 7 2 3 7 9 15 17 14 11 6 14 17 18 19 18 19 19 19 14 9 12 10 14 14 11 10 22 10 16 22 11 9 7
12 13 15 15 14 16 18 22 24 25 31 11 6 8 8 5 6 8 11 14 7 13 12 12 14 16 17 17 17 19 19 19 6 9 8 4 7 12 17 18 21 19 17 3 4 9 8
12 11 14 14 13 14 16 20 22 22 19 9 8 11 5 2 7 9 16 16 20 16 11 8 12 15 16 17 17 16 18 17 15 7 7 7 5 11 12 13 13 7 18 10 13 10 13
11 11 12 12 12 13 14 18 21 22 19 8 7 7 2 5 11 8 12 15 15 16 13 9 11 12 15 16 14 16 18 17 4 9 9 1 9 14 14 19 16 7 12 13 10 9 9
10 10 11 10 9 14 12 16 20 24 25 6 6 9 5 8 12 19 16 16 17 15 10 8 9 15 16 15 17 17 15 14 13 8 5 6 13 15 18 21 22 23 23 18 21 21 17
11 11 10 9 7 13 11 13 18 22 31 5 8 7 9 14 15 15 10 17 17 14 12 14 16 18 15 16 16 17 15 14 15 16 14 8 15 15 20 23 22 25 23 21 23 22 24
13 13 10 6 6 9 11 10 14 18 19 7 10 11 8 9 14 12 12 19 16 15 12 9 16 12 14 16 16 14 14 14 15 14 13 13 9 10 15 16 18 14 21 17 18 18 14
15 13 11 8 3 7 13 6 8 10 12 6 10 7 9 11 11 12 17 25 16 16 18 16 15 14 16 15 15 16 18 18 17 15 12 12 10 8 13 16 14 6 15 8 2 15 13
15 15 13 10 5 7 10 11 5 5 7 2 4 6 6 8 11 14 14 18 18 14 15 13 10 7 9 11 10 11 11 11 10 9 10 8 5 3 5 9 18 19 11 16 13 12 15
17 16 14 11 7 8 12 14 9 2 4 3 4 2 2 7 6 13 11 17 11 13 12 5 4 3 5 7 7 8 6 3 6 6 1 5 4 5 8 5 7 9 15 14 18 12 17
18 18 17 15 12 11 14 15 14 5 2 2 4 4 2 7 12 8 7 11 9 9 8 10 6 5 5 5 3 7 7 6 2 4 6 6 4 10 11 8 9 12 19 17 9 12 22
18 19 19 18 14 13 14 14 16 8 5 2 5 6 2 5 14 13 11 13 9 8 9 12 7 3 3 4 3 2 4 6 8 9 8 6 4 4 6 6 7 15 8 12 13 17 19
16 19 19 19 16 14 13 14 15 10 8 4 3 4 3 5 9 15 18 20 18 13 8 6 8 6 4 4 4 5 4 5 8 6 11 4 2 4 4 6 16 16 16 16 16 18 18
Wind_Direction
358 358 355 353 354 349 349 346 340 335 331 327 327 325 323 321 319 316 312 310 307 304 301 298 300 310 300 235 256 136 141 154 197 223 240 230 242 245 248 248 256 245 252 256 253 251 264
359 356 355 354 351 346 343 341 338 337 335 333 329 326 324 320 317 313 309 305 299 295 293 291 294 301 250 262 120 149 180 172 239 223 253 276 267 308 295 268 259 266 256 259 256 262 268
357 355 353 354 350 345 343 342 340 340 338 334 328 325 322 319 315 313 308 303 296 286 280 278 284 281 268 247 311 157 209 218 237 258 280 236 286 291 276 268 252 270 274 275 264 255 261
356 353 352 350 347 346 345 342 342 339 338 335 332 327 321 317 314 310 306 303 296 279 260 255 264 263 264 241 236 227 210 228 245 253 259 301 296 277 279 285 286 269 263 260 251 254 246
354 352 350 348 348 345 342 342 342 339 337 337 335 329 324 318 312 306 305 305 298 274 236 229 236 220 264 133 229 247 227 241 235 212 249 256 281 271 270 257 257 242 255 252 253 243 244
349 350 351 349 347 344 343 343 342 342 339 338 336 332 325 317 310 308 305 297 352 165 211 200 261 263 255 258 179 223 218 238 252 252 244 239 247 251 245 244 255 262 248 237 244 251 252
346 345 346 348 345 345 344 344 342 342 342 339 337 334 328 320 313 313 312 211 205 201 221 255 297 241 303 245 266 229 229 212 250 248 261 253 242 250 247 254 256 264 269 284 292 296 306
345 343 344 346 345 342 343 344 343 341 340 339 337 333 331 325 315 314 285 265 32 307 297 266 239 254 266 234 273 213 229 220 229 245 256 240 249 259 263 262 277 279 281 282 288 279 280
342 342 340 341 341 342 341 343 344 341 339 338 336 333 329 326 321 269 235 6 310 311 278 286 218 235 222 224 243 257 210 227 248 265 254 257 278 290 292 278 282 268 266 273 277 280 268
339 342 341 338 338 341 341 340 342 341 338 336 335 333 330 321 284 271 248 348 329 5 276 229 188 234 200 198 239 237 247 233 246 258 262 270 280 291 293 284 274 272 273 262 260 262 267
339 340 340 337 337 341 339 338 337 337 336 334 333 331 327 318 313 287 3 323 348 268 284 155 142 92 220 205 322 202 224 250 253 274 276 272 270 261 272 256 264 275 268 296 302 288 284
334 337 339 337 337 340 339 337 335 334 331 330 328 326 329 260 225 260 329 336 272 236 251 155 154 221 217 221 244 261 199 214 259 280 275 273 271 274 276 265 261 263 279 282 285 284 268
329 332 338 337 337 338 338 336 334 333 329 325 321 313 306 301 284 348 325 266 244 248 127 233 279 307 259 266 271 247 241 241 241 255 255 264 287 289 275 265 278 247 252 255 247 242 258
325 329 332 336 338 336 337 336 334 333 329 327 318 309 223 237 276 322 291 248 252 281 315 15 345 313 292 284 272 267 285 287 253 263 262 273 292 299 349 328 282 274 296 243 255 257 258
320 324 329 335 343 335 335 335 334 335 332 332 313 205 224 225 234 284 273 245 250 294 339 340 323 289 284 298 290 258 270 275 300 316 298 292 270 293 180 220 249 264 251 278 278 287 278
316 318 325 333 336 340 335 334 335 337 335 332 316 289 263 137 189 262 259 265 290 290 1 319 296 299 298 309 320 311 308 315 320 17 284 301 298 300 318 29 278 198 277 290 215 234 247
311 313 321 325 336 345 335 335 336 341 337 321 269 253 108 156 175 246 253 277 310 357 357 308 300 300 300 301 300 298 300 306 12 353 352 310 300 300 345 286 284 211 221 249 302 235 259
303 310 315 324 333 349 337 336 338 349 339 348 301 286 133 187 260 236 255 333 317 292 297 288 282 279 280 288 296 301 305 305 34 332 279 191 264 271 282 256 280 303 277 295 173 299 291
294 304 308 315 333 348 341 336 338 348 3 323 295 284 156 221 279 323 327 323 322 307 318 304 301 304 310 302 301 295 291 292 309 287 332 4 304 317 323 296 38 22 304 292 320 257 211
280 292 297 311 343 339 349 338 336 337 348 320 280 307 356 240 261 261 318 316 311 319 295 294 291 302 292 282 288 301 306 301 217 268 113 133 282 275 275 286 307 206 241 270 193 252 262
261 275 288 307 345 330 349 341 338 333 334 296 256 309 5 301 318 323 305 304 304 306 324 317 298 292 295 308 306 298 297 308 321 138 214 232 272 282 285 284 285 292 292 253 259 278 272
257 258 267 289 332 327 343 348 338 340 327 246 307 340 341 302 294 298 292 285 312 330 336 313 307 302 302 299 295 303 307 302 297 303 306 275 266 272 281 283 283 280 296 287 278 268 265
254 250 251 264 312 325 324 343 341 350 336 311 342 333 295 290 297 309 308 327 316 312 305 288 299 289 288 299 319 310 301 290 284 286 284 291 307 314 282 287 305 274 258 274 292 304 303
246 245 240 239 273 313 313 326 336 356 359 314 307 329 295 290 308 308 312 297 318 316 303 304 303 295 294 315 316 288 263 252 249 249 253 268 274 289 282 299 281 283 321 295 145 280 299
240 235 232 228 239 281 304 304 297 333 346 301 314 311 310 295 301 300 329 319 314 298 286 288 285 335 2 299 282 288 267 253 211 261 225 231 276 276 262 264 291 296 2 321 327 324 23
237 229 220 219 224 264 277 288 273 270 338 310 287 337 288 296 212 342 327 303 310 323 315 315 86 40 291 283 278 265 296 296 188 177 256 202 234 216 281 272 279 315 26 353 340 280 10
234 227 215 206 218 243 265 280 292 197 241 283 286 310 266 275 267 351 304 305 308 315 289 293 3 325 231 271 281 271 284 322 305 187 214 201 219 227 245 254 273 20 348 325 302 335 334
237 225 213 208 216 234 257 274 283 193 194 224 282 274 250 279 292 276 299 297 279 257 295 1 286 5 313 290 304 325 314 329 310 315 291 187 240 215 250 244 262 13 357 359 311 311 316
244 228 211 206 207 229 251 267 278 209 177 206 257 296 215 261 279 308 287 265 268 281 303 293 311 283 358 329 350 323 343 303 324 305 324 1 23 275 293 300 317 358 335 327 355 335 327